Index of /20260430/WXO-DD/model_gdps/15km/00/189
Name Last modified Size Description
Parent Directory -
20260430T00Z_MSC_GDPS_AirTemp_AGL-120m_LatLon0.15_PT189H.grib2 2026-04-30 04:33 907K
20260430T00Z_MSC_GDPS_AirTemp_AGL-2m_LatLon0.15_PT189H.grib2 2026-04-30 04:33 1.0M
20260430T00Z_MSC_GDPS_AirTemp_AGL-40m_LatLon0.15_PT189H.grib2 2026-04-30 04:33 929K
20260430T00Z_MSC_GDPS_AirTemp_AGL-80m_LatLon0.15_PT189H.grib2 2026-04-30 04:33 917K
20260430T00Z_MSC_GDPS_AirTemp_IsbL-0001_LatLon0.15_PT189H.grib2 2026-04-30 04:33 668K
20260430T00Z_MSC_GDPS_AirTemp_IsbL-0005_LatLon0.15_PT189H.grib2 2026-04-30 04:33 685K
20260430T00Z_MSC_GDPS_AirTemp_IsbL-0500_LatLon0.15_PT189H.grib2 2026-04-30 04:33 1.0M
20260430T00Z_MSC_GDPS_AirTemp_IsbL-0700_LatLon0.15_PT189H.grib2 2026-04-30 04:33 958K
20260430T00Z_MSC_GDPS_AirTemp_IsbL-0850_LatLon0.15_PT189H.grib2 2026-04-30 04:33 1.1M
20260430T00Z_MSC_GDPS_AirTemp_IsbL-0925_LatLon0.15_PT189H.grib2 2026-04-30 04:33 1.1M
20260430T00Z_MSC_GDPS_AirTemp_IsbL-1000_LatLon0.15_PT189H.grib2 2026-04-30 04:33 1.1M
20260430T00Z_MSC_GDPS_Albedo_Sfc_LatLon0.15_PT189H.grib2 2026-04-30 04:33 242K
20260430T00Z_MSC_GDPS_ConvectivePrecip-Accum_Sfc_LatLon0.15_PT189H.grib2 2026-04-30 04:33 3.6M
20260430T00Z_MSC_GDPS_DewPointDepression_AGL-2m_LatLon0.15_PT189H.grib2 2026-04-30 04:33 760K
20260430T00Z_MSC_GDPS_DewPointDepression_IsbL-0500_LatLon0.15_PT189H.grib2 2026-04-30 04:33 1.0M
20260430T00Z_MSC_GDPS_DewPointDepression_IsbL-0700_LatLon0.15_PT189H.grib2 2026-04-30 04:33 1.1M
20260430T00Z_MSC_GDPS_DewPointDepression_IsbL-0850_LatLon0.15_PT189H.grib2 2026-04-30 04:33 1.2M
20260430T00Z_MSC_GDPS_DewPointDepression_IsbL-0925_LatLon0.15_PT189H.grib2 2026-04-30 04:33 1.0M
20260430T00Z_MSC_GDPS_DewPointDepression_IsbL-1000_LatLon0.15_PT189H.grib2 2026-04-30 04:33 965K
20260430T00Z_MSC_GDPS_DewPoint_AGL-2m_LatLon0.15_PT189H.grib2 2026-04-30 04:33 606K
20260430T00Z_MSC_GDPS_DownwardLongwaveRadiationFlux-Accum_Sfc_LatLon0.15_PT189H.grib2 2026-04-30 04:33 660K
20260430T00Z_MSC_GDPS_DownwardShortwaveRadiationFlux-Accum_Sfc_LatLon0.15_PT189H.grib2 2026-04-30 04:33 847K
20260430T00Z_MSC_GDPS_FreezingRain-Accum_Sfc_LatLon0.15_PT189H.grib2 2026-04-30 04:33 383K
20260430T00Z_MSC_GDPS_GeopotentialHeight_IsbL-0001_LatLon0.15_PT189H.grib2 2026-04-30 04:33 423K
20260430T00Z_MSC_GDPS_GeopotentialHeight_IsbL-0005_LatLon0.15_PT189H.grib2 2026-04-30 04:33 486K
20260430T00Z_MSC_GDPS_GeopotentialHeight_IsbL-0500_LatLon0.15_PT189H.grib2 2026-04-30 04:33 530K
20260430T00Z_MSC_GDPS_GeopotentialHeight_IsbL-0700_LatLon0.15_PT189H.grib2 2026-04-30 04:33 688K
20260430T00Z_MSC_GDPS_GeopotentialHeight_IsbL-0850_LatLon0.15_PT189H.grib2 2026-04-30 04:33 713K
20260430T00Z_MSC_GDPS_GeopotentialHeight_IsbL-0925_LatLon0.15_PT189H.grib2 2026-04-30 04:33 734K
20260430T00Z_MSC_GDPS_GeopotentialHeight_IsbL-1000_LatLon0.15_PT189H.grib2 2026-04-30 04:33 787K
20260430T00Z_MSC_GDPS_IcePellets-Accum_Sfc_LatLon0.15_PT189H.grib2 2026-04-30 04:33 126K
20260430T00Z_MSC_GDPS_LatentHeatNetFlux_Sfc_LatLon0.15_PT189H.grib2 2026-04-30 04:33 680K
20260430T00Z_MSC_GDPS_NetLongwaveRadiationFlux-Accum_Sfc_LatLon0.15_PT189H.grib2 2026-04-30 04:33 885K
20260430T00Z_MSC_GDPS_NetShortwaveRadiationFlux-Accum_Sfc_LatLon0.15_PT189H.grib2 2026-04-30 04:33 845K
20260430T00Z_MSC_GDPS_O3MixingRatio_Sfc_LatLon0.15_PT189H.grib2 2026-04-30 04:51 1.9M
20260430T00Z_MSC_GDPS_O3_EAtm_LatLon0.15_PT189H.grib2 2026-04-30 04:51 2.4M
20260430T00Z_MSC_GDPS_PlanetaryBoundaryLayerHeight_Sfc_LatLon0.15_PT189H.grib2 2026-04-30 04:33 2.4M
20260430T00Z_MSC_GDPS_Precip-Accum_Sfc_LatLon0.15_PT189H.grib2 2026-04-30 04:33 5.4M
20260430T00Z_MSC_GDPS_PrecipRate_Sfc_LatLon0.15_PT189H.grib2 2026-04-30 04:33 3.1M
20260430T00Z_MSC_GDPS_Pressure_MSL_LatLon0.15_PT189H.grib2 2026-04-30 04:33 823K
20260430T00Z_MSC_GDPS_Pressure_Sfc_LatLon0.15_PT189H.grib2 2026-04-30 04:33 1.1M
20260430T00Z_MSC_GDPS_RadiativeTemp_Sfc_LatLon0.15_PT189H.grib2 2026-04-30 04:33 659K
20260430T00Z_MSC_GDPS_Rain-Accum_Sfc_LatLon0.15_PT189H.grib2 2026-04-30 04:33 4.2M
20260430T00Z_MSC_GDPS_RelativeHumidity_AGL-2m_LatLon0.15_PT189H.grib2 2026-04-30 04:33 1.0M
20260430T00Z_MSC_GDPS_Runoff-Accum_Sfc_LatLon0.15_PT189H.grib2 2026-04-30 04:33 127K
20260430T00Z_MSC_GDPS_SensibleHeatNetFlux_Sfc_LatLon0.15_PT189H.grib2 2026-04-30 04:33 450K
20260430T00Z_MSC_GDPS_Snow-Accum_Sfc_LatLon0.15_PT189H.grib2 2026-04-30 04:33 2.1M
20260430T00Z_MSC_GDPS_SnowDepth_Sfc_LatLon0.15_PT189H.grib2 2026-04-30 04:33 1.7M
20260430T00Z_MSC_GDPS_SoilTemp_DBS-0to10cm_LatLon0.15_PT189H.grib2 2026-04-30 04:33 513K
20260430T00Z_MSC_GDPS_SoilTemp_Sfc_LatLon0.15_PT189H.grib2 2026-04-30 04:33 570K
20260430T00Z_MSC_GDPS_SoilVolumetricWaterContent_DBS-0to10cm_LatLon0.15_PT189H.grib2 2026-04-30 04:33 594K
20260430T00Z_MSC_GDPS_SoilVolumetricWaterContent_DBS-0to1cm_LatLon0.15_PT189H.grib2 2026-04-30 04:33 651K
20260430T00Z_MSC_GDPS_SpecificHumidity_AGL-120m_LatLon0.15_PT189H.grib2 2026-04-30 04:33 1.1M
20260430T00Z_MSC_GDPS_SpecificHumidity_AGL-2m_LatLon0.15_PT189H.grib2 2026-04-30 04:33 1.2M
20260430T00Z_MSC_GDPS_SpecificHumidity_AGL-40m_LatLon0.15_PT189H.grib2 2026-04-30 04:33 1.1M
20260430T00Z_MSC_GDPS_SpecificHumidity_AGL-80m_LatLon0.15_PT189H.grib2 2026-04-30 04:33 1.1M
20260430T00Z_MSC_GDPS_SpecificHumidity_IsbL-0001_LatLon0.15_PT189H.grib2 2026-04-30 04:33 1.1M
20260430T00Z_MSC_GDPS_SpecificHumidity_IsbL-0005_LatLon0.15_PT189H.grib2 2026-04-30 04:33 1.1M
20260430T00Z_MSC_GDPS_SpecificHumidity_IsbL-0500_LatLon0.15_PT189H.grib2 2026-04-30 04:33 1.5M
20260430T00Z_MSC_GDPS_SpecificHumidity_IsbL-0700_LatLon0.15_PT189H.grib2 2026-04-30 04:33 1.6M
20260430T00Z_MSC_GDPS_SpecificHumidity_IsbL-0850_LatLon0.15_PT189H.grib2 2026-04-30 04:33 1.9M
20260430T00Z_MSC_GDPS_SpecificHumidity_IsbL-0925_LatLon0.15_PT189H.grib2 2026-04-30 04:33 1.6M
20260430T00Z_MSC_GDPS_SpecificHumidity_IsbL-1000_LatLon0.15_PT189H.grib2 2026-04-30 04:33 1.5M
20260430T00Z_MSC_GDPS_SpecificHumidity_Sfc_LatLon0.15_PT189H.grib2 2026-04-30 04:33 642K
20260430T00Z_MSC_GDPS_Thickness_IsbL-0850to0700_LatLon0.15_PT189H.grib2 2026-04-30 04:33 473K
20260430T00Z_MSC_GDPS_Thickness_IsbL-1000to0500_LatLon0.15_PT189H.grib2 2026-04-30 04:33 376K
20260430T00Z_MSC_GDPS_Thickness_IsbL-1000to0850_LatLon0.15_PT189H.grib2 2026-04-30 04:33 488K
20260430T00Z_MSC_GDPS_TotalCloudCover_Sfc_LatLon0.15_PT189H.grib2 2026-04-30 04:33 820K
20260430T00Z_MSC_GDPS_UVIndex-ClearSky_Sfc_LatLon0.15_PT189H.grib2 2026-04-30 04:51 1.0M
20260430T00Z_MSC_GDPS_UVIndex_Sfc_LatLon0.15_PT189H.grib2 2026-04-30 04:51 1.5M
20260430T00Z_MSC_GDPS_UpwardLongwaveRadiationFlux_NTAtm_LatLon0.15_PT189H.grib2 2026-04-30 04:33 833K
20260430T00Z_MSC_GDPS_VerticalVelocity_IsbL-0500_LatLon0.15_PT189H.grib2 2026-04-30 04:33 1.3M
20260430T00Z_MSC_GDPS_VerticalVelocity_IsbL-0700_LatLon0.15_PT189H.grib2 2026-04-30 04:33 1.4M
20260430T00Z_MSC_GDPS_VerticalVelocity_IsbL-0850_LatLon0.15_PT189H.grib2 2026-04-30 04:33 1.3M
20260430T00Z_MSC_GDPS_WindDir_AGL-10m_LatLon0.15_PT189H.grib2 2026-04-30 04:33 1.3M
20260430T00Z_MSC_GDPS_WindDir_AGL-120m_LatLon0.15_PT189H.grib2 2026-04-30 04:33 1.3M
20260430T00Z_MSC_GDPS_WindDir_AGL-40m_LatLon0.15_PT189H.grib2 2026-04-30 04:33 1.4M
20260430T00Z_MSC_GDPS_WindDir_AGL-80m_LatLon0.15_PT189H.grib2 2026-04-30 04:33 1.4M
20260430T00Z_MSC_GDPS_WindDir_IsbL-0001_LatLon0.15_PT189H.grib2 2026-04-30 04:33 672K
20260430T00Z_MSC_GDPS_WindDir_IsbL-0005_LatLon0.15_PT189H.grib2 2026-04-30 04:33 811K
20260430T00Z_MSC_GDPS_WindDir_IsbL-0500_LatLon0.15_PT189H.grib2 2026-04-30 04:33 1.4M
20260430T00Z_MSC_GDPS_WindDir_IsbL-0700_LatLon0.15_PT189H.grib2 2026-04-30 04:33 1.6M
20260430T00Z_MSC_GDPS_WindDir_IsbL-0850_LatLon0.15_PT189H.grib2 2026-04-30 04:33 1.9M
20260430T00Z_MSC_GDPS_WindDir_IsbL-0925_LatLon0.15_PT189H.grib2 2026-04-30 04:33 2.0M
20260430T00Z_MSC_GDPS_WindDir_IsbL-1000_LatLon0.15_PT189H.grib2 2026-04-30 04:33 2.0M
20260430T00Z_MSC_GDPS_WindGust-Max_AGL-10m_LatLon0.15_PT189H.grib2 2026-04-30 04:33 2.2M
20260430T00Z_MSC_GDPS_WindGust-Min_AGL-10m_LatLon0.15_PT189H.grib2 2026-04-30 04:33 2.1M
20260430T00Z_MSC_GDPS_WindGust_AGL-10m_LatLon0.15_PT189H.grib2 2026-04-30 04:33 2.1M
20260430T00Z_MSC_GDPS_WindSpeed_AGL-10m_LatLon0.15_PT189H.grib2 2026-04-30 04:33 1.1M
20260430T00Z_MSC_GDPS_WindSpeed_AGL-120m_LatLon0.15_PT189H.grib2 2026-04-30 04:33 1.2M
20260430T00Z_MSC_GDPS_WindSpeed_AGL-40m_LatLon0.15_PT189H.grib2 2026-04-30 04:33 1.2M
20260430T00Z_MSC_GDPS_WindSpeed_AGL-80m_LatLon0.15_PT189H.grib2 2026-04-30 04:33 1.2M
20260430T00Z_MSC_GDPS_WindSpeed_IsbL-0001_LatLon0.15_PT189H.grib2 2026-04-30 04:33 651K
20260430T00Z_MSC_GDPS_WindSpeed_IsbL-0005_LatLon0.15_PT189H.grib2 2026-04-30 04:33 691K
20260430T00Z_MSC_GDPS_WindSpeed_IsbL-0500_LatLon0.15_PT189H.grib2 2026-04-30 04:33 1.1M
20260430T00Z_MSC_GDPS_WindSpeed_IsbL-0700_LatLon0.15_PT189H.grib2 2026-04-30 04:33 1.5M
20260430T00Z_MSC_GDPS_WindSpeed_IsbL-0850_LatLon0.15_PT189H.grib2 2026-04-30 04:33 1.7M
20260430T00Z_MSC_GDPS_WindSpeed_IsbL-0925_LatLon0.15_PT189H.grib2 2026-04-30 04:33 1.8M
20260430T00Z_MSC_GDPS_WindSpeed_IsbL-1000_LatLon0.15_PT189H.grib2 2026-04-30 04:33 1.9M
20260430T00Z_MSC_GDPS_WindU_AGL-10m_LatLon0.15_PT189H.grib2 2026-04-30 04:33 1.3M
20260430T00Z_MSC_GDPS_WindU_AGL-120m_LatLon0.15_PT189H.grib2 2026-04-30 04:33 1.0M
20260430T00Z_MSC_GDPS_WindU_AGL-40m_LatLon0.15_PT189H.grib2 2026-04-30 04:33 967K
20260430T00Z_MSC_GDPS_WindU_AGL-80m_LatLon0.15_PT189H.grib2 2026-04-30 04:33 1.0M
20260430T00Z_MSC_GDPS_WindU_IsbL-0001_LatLon0.15_PT189H.grib2 2026-04-30 04:33 503K
20260430T00Z_MSC_GDPS_WindU_IsbL-0005_LatLon0.15_PT189H.grib2 2026-04-30 04:33 692K
20260430T00Z_MSC_GDPS_WindU_IsbL-0500_LatLon0.15_PT189H.grib2 2026-04-30 04:33 1.1M
20260430T00Z_MSC_GDPS_WindU_IsbL-0700_LatLon0.15_PT189H.grib2 2026-04-30 04:33 1.2M
20260430T00Z_MSC_GDPS_WindU_IsbL-0850_LatLon0.15_PT189H.grib2 2026-04-30 04:33 1.4M
20260430T00Z_MSC_GDPS_WindU_IsbL-0925_LatLon0.15_PT189H.grib2 2026-04-30 04:33 1.5M
20260430T00Z_MSC_GDPS_WindU_IsbL-1000_LatLon0.15_PT189H.grib2 2026-04-30 04:33 1.4M
20260430T00Z_MSC_GDPS_WindV_AGL-10m_LatLon0.15_PT189H.grib2 2026-04-30 04:33 1.3M
20260430T00Z_MSC_GDPS_WindV_AGL-120m_LatLon0.15_PT189H.grib2 2026-04-30 04:33 1.0M
20260430T00Z_MSC_GDPS_WindV_AGL-40m_LatLon0.15_PT189H.grib2 2026-04-30 04:33 966K
20260430T00Z_MSC_GDPS_WindV_AGL-80m_LatLon0.15_PT189H.grib2 2026-04-30 04:33 973K
20260430T00Z_MSC_GDPS_WindV_IsbL-0001_LatLon0.15_PT189H.grib2 2026-04-30 04:33 718K
20260430T00Z_MSC_GDPS_WindV_IsbL-0005_LatLon0.15_PT189H.grib2 2026-04-30 04:33 859K
20260430T00Z_MSC_GDPS_WindV_IsbL-0500_LatLon0.15_PT189H.grib2 2026-04-30 04:33 1.1M
20260430T00Z_MSC_GDPS_WindV_IsbL-0700_LatLon0.15_PT189H.grib2 2026-04-30 04:33 1.2M
20260430T00Z_MSC_GDPS_WindV_IsbL-0850_LatLon0.15_PT189H.grib2 2026-04-30 04:33 1.4M
20260430T00Z_MSC_GDPS_WindV_IsbL-0925_LatLon0.15_PT189H.grib2 2026-04-30 04:33 1.5M
20260430T00Z_MSC_GDPS_WindV_IsbL-1000_LatLon0.15_PT189H.grib2 2026-04-30 04:33 1.4M